Flag for Switzerland Weather past 2 weeks in Emmen, Lucerne, Switzerland

Now
31 °F

Chilly.


Feels Like: 31 °F
Forecast: 36 / 49 °F
Wind: No wind

Location: Giswil

Current Time: Dec 21, 2014 at 9:41:38 AM

Latest Report: Dec 21, 2014 at 9:00 AM


Visibility: N/A

Pressure: 30.65 "Hg

Humidity: 100%

Dew point: 31 °F

Location of EmmenLocation

Historic Weather in Emmen — Graph

°F

Emmen temperature yesterday

Maximum temperature yesterday: 50 °F (at 1:00 AM)
Minimum temperature yesterday: 41 °F (at 8:00 AM)
Average temperature yesterday: 46 °F

Past Weeks' High & Low Weather Summary

 TemperatureHumidityPressure
High50 °F (Dec 19, 10:00 PM)100% (Dec 6, 5:00 PM)30.63 "Hg (Dec 6, 5:00 PM)
Low26 °F (Dec 12, 8:00 AM)48% (Dec 11, 7:00 PM)29.90 "Hg (Dec 12, 9:00 PM)
Average39 °F94%30.18 "Hg
* Reported Dec 6 8:00 AM — Dec 21 8:00 AM, Emmen, Weather by CustomWeather, © 2014

Note: Actual official high and low records may vary slightly from our data, if they occured in-between our weather recording intervals... More about our weather records

Advertising

Emmen weather history for previous 24 hours

 ConditionsComfort  
Time TempWeatherWind HumidityBarometerVisibility
8:00 AM
Dec 21
30 °FChilly.2 mph100%30.63 "HgN/A
7:00 AM31 °FChilly.2 mph100%30.62 "HgN/A
6:00 AM34 °FChilly.2 mph97%30.61 "HgN/A
5:00 AM40 °FQuite cool.2 mph80%30.58 "HgN/A
4:00 AM43 °FQuite cool.6 mph69%30.56 "HgN/A
3:00 AM43 °FQuite cool.3 mph61%30.53 "HgN/A
2:00 AM43 °FQuite cool.2 mph65%30.53 "HgN/A
1:00 AM43 °FQuite cool.7 mph67%30.54 "HgN/A
12:00 AM41 °FQuite cool.1 mph80%30.55 "HgN/A
11:00 PM
Dec 20
43 °FQuite cool.3 mph64%30.53 "HgN/A
9:00 PM42 °FQuite cool.5 mph76%30.50 "HgN/A
8:00 PM43 °FQuite cool.3 mph79%30.47 "HgN/A
7:00 PM43 °FQuite cool.5 mph81%30.44 "HgN/A
6:00 PM44 °FQuite cool.8 mph87%30.38 "HgN/A
5:00 PM46 °FCool.3 mph91%30.35 "HgN/A
4:00 PM46 °FCool.3 mph93%30.34 "HgN/A
3:00 PM47 °FCool.5 mph94%30.34 "HgN/A
2:00 PM49 °FCool.2 mph90%30.29 "HgN/A
1:00 PM48 °FCool.No wind93%30.34 "HgN/A
12:00 PM47 °FCool.1 mph99%30.37 "HgN/A
11:00 AM44 °FQuite cool.1 mph100%30.39 "HgN/A
10:00 AM42 °FQuite cool.2 mph100%30.38 "HgN/A
9:00 AM43 °FQuite cool.3 mph100%30.37 "HgN/A
Weather by CustomWeather, © 2014

See weather overviewHow to use our weather pages